Tracking 27126 objects as of 30-Mar-2023
HD Live streaming from Space Station
objects crossing your sky now

STARLINK-4274

Track STARLINK-4274 now!
10-day predictions
STARLINK-4274 is classified as:


NORAD ID: 52865
Int'l Code: 2022-062AM
Perigee: 545.4 km
Apogee: 548.5 km
Inclination: 53.2 °
Period: 95.4 minutes
Semi major axis: 6917 km
RCS: Unknown
Launch date: June 17, 2022
Source: United States (US)
Launch site: AIR FORCE EASTERN TEST RANGE (AFETR)
Your satellite tracking list
Your tracking list is empty




NASA's NSSDC Master Catalog

Two Line Element Set (TLE):
1 52865U 22062AM  23089.18155281 -.00002428  00000-0 -13451-3 0  9996
2 52865  53.2157 172.2670 0002281  53.2587 306.8614 15.08824380 44059
Source of the keplerian elements: AFSPC